Вернуться в каталог

CZ-6A DEB

АктивенPO
NORAD 54263·DEBRIS·🇨🇳 China

Запущен Nov 11, 2022 с Taiyuan Satellite Launch Center

Loading…

Ближайшие Пролёты (ближайшие 24 часа)

TLE

СвежийSource: Space-Track

Эпоха: Sep 14, 2026, 06:11 UTC

1 54263U 22151E   26257.25823357 -.00000027  00000-0  11724-4 0  9997
2 54263  99.1410 176.8130 0305136  70.3614 293.0186 13.56769067190000

Отслеживайте CZ-6A DEB в реальном времени с AllMySat

Download on the App Store